Toronto Pearson, Ontario

9:09 PM EST on November 14, 2019 (GMT -0500)
Toronto-Pearson International

Weather History for CYYZ - June, 2019

Change the Weather History Date:

Tuesday, June 4, 2019

  Actual Average Record
Temperature  
Mean Temperature 54 °F -  
Max Temperature 64 °F 75 °F 79 °F (2016)
Min Temperature 43 °F 53 °F 39 °F (1998)
Degree Days  
Heating Degree Days 12    
Growing Degree Days 4 (Base 50)    
Moisture  
Dew Point 44 °F    
Average Humidity 65    
Maximum Humidity 77    
Minimum Humidity 51    
Precipitation  
Precipitation 0.00 in 0.09 in - ()
Sea Level Pressure  
Sea Level Pressure 30.00 in    
Wind  
Wind Speed 7 mph ()    
Max Wind Speed 14 mph    
Max Gust Speed 21 mph    
Visibility 15.0 miles    
Events      
Averages and records for this station are not official NWS values.
T = Trace of Precipitation, MM = Missing Value Source: Averaged Metar Reports

Daily Weather History Graph

Daily Weather History Graph

Search for Another Location

Airport or City:

Astronomy

Jun. 04, 2019 Rise Set
Actual Time 5:38 AM EDT 8:55 PM EDT
Civil Twilight 5:03 AM EDT 9:30 PM EDT
Nautical Twilight 4:17 AM EDT 10:16 PM EDT
Astronomical Twilight 3:21 AM EDT 11:13 PM EDT
Moon 6:46 AM EDT (6/4) 10:21 PM EDT (6/4)
Length of Visible Light 16h 27m
Length of Day
15h 16m
New Moon, 2% of the Moon is Illuminated
Jun 4
New Moon
Jun 10
First Quarter
Jun 17
Full
Jun 25
Last Quarter
Jul 2
New

Hourly Weather History & Observations

Time (EDT) Temp. Windchill Dew Point Humidity Pressure Visibility Wind Dir Wind Speed Gust Speed Precip Events Conditions
12:00 AM 48.2 °F - 37.4 °F 66% 30.09 in 15.0 mi West 4.6 mph - N/A   Clear
1:00 AM 46.4 °F 42.4 °F 37.4 °F 71% 30.09 in 15.0 mi South 8.1 mph - N/A   Clear
2:00 AM 46 °F - 38 °F 64% 30.09 in 15 mi SSW 9.2 mph - -  
2:00 AM 46.4 °F 41.9 °F 37.4 °F 71% 30.09 in 15.0 mi SSW 9.2 mph - N/A   Clear
3:00 AM 48.2 °F - 37.4 °F 66% 30.09 in 15.0 mi Variable 5.8 mph - N/A   Clear
4:00 AM 46.4 °F 41.9 °F 37.4 °F 71% 30.09 in 15.0 mi South 9.2 mph - N/A   Clear
5:00 AM 46 °F - 37 °F 63% 30.08 in 15 mi South 5.8 mph - -  
5:00 AM 46.4 °F 45.2 °F 37.4 °F 71% 30.08 in 15.0 mi Variable 3.5 mph - N/A   Mostly Cloudy
6:00 AM 46.4 °F 42.9 °F 39.2 °F 76% 30.09 in 15.0 mi Variable 6.9 mph - N/A   Mostly Cloudy
7:00 AM 50.0 °F - 42.8 °F 76% 30.08 in 15.0 mi South 8.1 mph - N/A   Mostly Cloudy
8:00 AM 54 °F - 42 °F 53% 30.09 in 15 mi South 9.2 mph - -   Mostly Cloudy
8:00 AM 53.6 °F - 41.0 °F 62% 30.09 in 15.0 mi South 8.1 mph - N/A   Mostly Cloudy
9:00 AM 53.6 °F - 44.6 °F 72% 30.09 in 15.0 mi South 10.4 mph - N/A   Mostly Cloudy
10:00 AM 55.4 °F - 44.6 °F 67% 30.06 in 15.0 mi South 12.7 mph - N/A   Mostly Cloudy
11:00 AM 59 °F - 47 °F 56% 30.05 in 15 mi South 8.1 mph - -   Overcast
11:00 AM 59.0 °F - 48.2 °F 67% 30.05 in 15.0 mi South 5.8 mph - N/A   Overcast
12:00 PM 57.2 °F - 48.2 °F 72% 30.04 in 15.0 mi SE 8.1 mph - N/A   Overcast
2:00 PM 61 °F - 48 °F 51% 30.00 in 15 mi South 10.4 mph - -   Overcast
2:00 PM 60.8 °F - 48.2 °F 63% 30.00 in 15.0 mi SSE 13.8 mph - N/A   Overcast
3:00 PM 60.8 °F - 48.2 °F 63% 29.97 in 15.0 mi SE 6.9 mph 19.6 mph N/A   Overcast
4:00 PM 62.6 °F - 48.2 °F 59% 29.93 in 15.0 mi ESE 9.2 mph 20.7 mph N/A   Mostly Cloudy
5:00 PM 61 °F - 48 °F 52% 29.90 in 15 mi ESE 9.2 mph - -   Overcast
5:00 PM 60.8 °F - 48.2 °F 63% 29.90 in 15.0 mi ESE 8.1 mph 19.6 mph N/A   Overcast
6:00 PM 60.8 °F - 46.4 °F 59% 29.87 in 15.0 mi ESE 8.1 mph 18.4 mph N/A   Overcast
8:00 PM 57 °F - 46 °F 57% 29.85 in 15 mi East 13.8 mph - -   Mostly Cloudy
8:00 PM 57.2 °F - 46.4 °F 67% 29.85 in 15.0 mi East 13.8 mph - N/A   Mostly Cloudy
9:00 PM 55.4 °F - 46.4 °F 72% 29.83 in 15.0 mi East 5.8 mph - N/A   Mostly Cloudy
10:00 PM 55.4 °F - 46.4 °F 72% 29.83 in 15.0 mi SSE 8.1 mph - N/A   Mostly Cloudy
11:00 PM 55.4 °F - 48.2 °F 77% 29.83 in 15.0 mi East 6.9 mph - N/A   Scattered Clouds